Weather History for Tulsa Jones, OK

Change the Weather History Date:

Friday, June 21, 2013

  Actual Average (KTUL) Record (KTUL)
Temperature  
Mean Temperature 85 °F 79 °F  
Max Temperature 96 °F 89 °F 107 °F (1936)
Min Temperature 75 °F 69 °F 54 °F (1961)
Cooling Degree Days 20 14  
Month to date cooling degree days 241  
Year to date cooling degree days 475  
Since 1 June cooling degree days 241  
Growing Degree Days 35 (Base 50)    
Moisture  
Dew Point 70 °F    
Average Humidity 62    
Maximum Humidity 87    
Minimum Humidity 38    
Precipitation  
Precipitation 0.00 in 0.15 in 4.37 in (1948)
Month to date precipitation 3.51  
Year to date precipitation 20.01  
Sea Level Pressure  
Sea Level Pressure 29.99 in    
Wind  
Wind Speed 9 mph (South)    
Max Wind Speed 18 mph    
Max Gust Speed 25 mph    
Visibility 10 miles    
Events      
T = Trace of Precipitation, MM = Missing Value Source: NWS Daily Summary

Daily Weather History Graph

Daily Weather History Graph

Search for Another Location

Airport:

Trip Planner

Search our weather history database for the weather conditions in past years. The results will help you decide how hot, cold, wet, or windy it might be!

Date:

Astronomy

Jun. 21, 2013 Rise Set
Actual Time 6:07 AM CDT 8:44 PM CDT
Civil Twilight 5:37 AM CDT 9:14 PM CDT
Nautical Twilight 4:59 AM CDT 9:52 PM CDT
Astronomical Twilight 4:17 AM CDT 10:34 PM CDT
Moon 6:58 PM CDT (6/21) 4:21 AM CDT (6/21)
Length of Visible Light 15h 37m
Length of Day
14h 36m
Waxing Gibbous, 95% of the Moon is Illuminated
Jun 21
Waxing Gibbous
Jun 23
Full
Jun 29
Last Quarter
Jul 8
New
Jul 15
First Quarter

Hourly Weather History & Observations

Time (CDT) Temp. Heat Index Dew Point Humidity Pressure Visibility Wind Dir Wind Speed Gust Speed Precip Events Conditions
12:53 AM 80.1 °F 84.2 °F 73.0 °F 79% 30.00 in 10.0 mi South 6.9 mph - N/A   Clear
1:53 AM 80.1 °F 83.8 °F 72.0 °F 76% 30.00 in 10.0 mi South 6.9 mph - N/A   Clear
2:53 AM 79.0 °F - 72.0 °F 79% 29.99 in 10.0 mi South 5.8 mph - N/A   Clear
3:53 AM 75.9 °F - 72.0 °F 87% 29.99 in 10.0 mi SSE 6.9 mph - N/A   Clear
4:53 AM 78.1 °F - 72.0 °F 81% 29.99 in 10.0 mi South 6.9 mph - N/A   Clear
5:53 AM 78.1 °F - 72.0 °F 81% 29.99 in 10.0 mi South 6.9 mph 16.1 mph N/A   Clear
6:53 AM 78.1 °F - 72.0 °F 81% 30.00 in 10.0 mi South 6.9 mph - N/A   Clear
7:53 AM 80.1 °F 83.6 °F 71.1 °F 74% 30.01 in 10.0 mi South 9.2 mph - N/A   Clear
8:53 AM 82.0 °F 86.3 °F 71.1 °F 69% 30.03 in 10.0 mi SSW 10.4 mph - N/A   Clear
9:53 AM 84.9 °F 90.1 °F 71.1 °F 63% 30.04 in 10.0 mi South 11.5 mph - N/A   Clear
10:53 AM 88.0 °F 94.7 °F 72.0 °F 59% 30.03 in 10.0 mi South 11.5 mph - N/A   Clear
11:53 AM 91.0 °F 98.2 °F 72.0 °F 53% 30.03 in 10.0 mi South 12.7 mph 19.6 mph N/A   Clear
12:53 PM 91.9 °F 96.9 °F 69.1 °F 47% 30.02 in 10.0 mi South 12.7 mph - N/A   Clear
1:53 PM 93.9 °F 98.6 °F 68.0 °F 43% 30.00 in 10.0 mi South 15.0 mph 23.0 mph N/A   Clear
2:53 PM 95.0 °F 97.9 °F 66.0 °F 38% 29.99 in 10.0 mi South 17.3 mph 21.9 mph N/A   Clear
3:53 PM 93.0 °F 95.0 °F 64.9 °F 39% 29.99 in 10.0 mi South 16.1 mph 25.3 mph N/A   Clear
4:53 PM 95.0 °F 100.7 °F 69.1 °F 43% 29.98 in 10.0 mi South 13.8 mph 19.6 mph N/A   Scattered Clouds
5:53 PM 93.0 °F 99.0 °F 70.0 °F 47% 29.96 in 10.0 mi South 18.4 mph 24.2 mph N/A   Partly Cloudy
6:53 PM 91.0 °F 95.6 °F 69.1 °F 48% 29.96 in 10.0 mi South 16.1 mph 23.0 mph N/A   Clear
7:53 PM 89.1 °F 92.1 °F 66.9 °F 48% 29.96 in 10.0 mi South 13.8 mph 18.4 mph N/A   Clear
8:53 PM 86.0 °F 88.8 °F 66.9 °F 53% 29.96 in 10.0 mi South 8.1 mph - N/A   Clear
9:53 PM 82.9 °F 85.8 °F 68.0 °F 60% 29.97 in 10.0 mi South 6.9 mph - N/A   Clear
10:53 PM 82.0 °F 85.5 °F 69.1 °F 65% 29.98 in 10.0 mi South 8.1 mph - N/A   Clear
11:53 PM 81.0 °F 84.1 °F 69.1 °F 67% 29.99 in 10.0 mi South 5.8 mph - N/A   Clear